Location: Agadir Irigdalene
(31.2522°N, 8.7797°W)
Time: 04:58:37
(UTC+00:00)

CZ-2C R/B - Pass Details

Date: 01 December 2020
Orbit: 785 x 870 km, 98.2° (Epoch: 25 January)

Event Time Altitude Azimuth Distance (km) Brightness Sun altitude
Exits shadow 20:02:13 21° 188° (S) 1,715 4.4 -31.5°
Drops below altitude 10° 20:03:50 10° 190° (S) 2,342 5.2 -31.8°
Sets 20:06:09 0° 191° (S) 3,275 6.0 -32.3°
